Find Starlink 33907

NORAD ID: 63769 Int'l Des: 2025-089 Owner: SPXS Country: US Constellation: starlink operational
LEOCIRCULAR

リアルタイム位置

3D地球を読み込み中...

Starlink 33907について

説明を読み込み中...

次回通過

Passes for default location (London). Set your location on the main map for personalized predictions.

高度履歴

Loading altitude history...

軌道要素

1 63769U 25089U 26127.25560057 .00011233 00000-0 41698-3 0 9994
2 63769 43.0025 74.5543 0001625 269.3470 90.7195 15.27588764 57860
Epoch: May 7, 2026 • Age: 15 hours

現在のステータス

高度 493.9 km
速度 7.62 km/s
衛星直下点 -39.63°S, 127.14°E
打ち上げ日 Apr 29, 2025
運用期間 1 years
タイプ internet

技術仕様

分類 Payload
質量 575.00 kg
乾燥質量 530.00 kg
総質量 575.00 kg
長さ 0.30 m
直径 4.10 m
スパン 29.00 m
形状 Box + pan
製造者 SPXS
バスタイプ Starlink V2MO
フェーズステータス In Orbit
所有者/国 SPXS/US

Most Searched